| time (UTC) | temp F | wind direction | speed MPH | gust MPH | rain 1hr in | rain 24hr in | rain mn in | humidity % | barometer mb |
| 20260508200021 | 54 | 202 | 1.0 | 4.0 | 0.00 | 0.00 | 0.00 | 69 | 1011.3 |
| 20260508193020 | 48 | 247 | 1.0 | 4.0 | 0.00 | 0.00 | 0.00 | 77 | 1011.6 |
| 20260508190020 | 47 | 247 | 2.0 | 6.0 | 0.00 | 0.00 | 0.00 | 80 | |
| 20260508183020 | 46 | 270 | 2.0 | 10.0 | 0.00 | 0.00 | 0.00 | 80 | |
| 20260508180035 | 0 | 247 | 1.0 | 5.0 | 0.00 | 0.00 | 0.00 | 60 | |
| 20260508173025 | 50 | 247 | 2.0 | 6.0 | 0.00 | 0.00 | 0.00 | 70 | 1011.5 |
| 20260508170015 | 51 | 247 | 1.0 | 5.0 | 0.00 | 0.00 | 0.00 | 62 | 1011.8 |
| 20260508163022 | 51 | 247 | 2.0 | 6.0 | 0.00 | 0.00 | 0.00 | 60 | 1011.8 |
| 20260508160043 | 53 | 247 | 2.0 | 5.0 | 0.00 | 0.00 | 0.00 | 57 | 1012.0 |
| 20260508153022 | 54 | 247 | 1.0 | 4.0 | 0.00 | 0.00 | 0.00 | 56 | 1011.8 |
| 20260508150038 | 51 | 270 | 1.0 | 3.0 | 0.00 | 0.00 | 0.00 | 65 | |
| 20260508143021 | 0 | 247 | 1.0 | 5.0 | 0.00 | 0.00 | 0.00 | 68 | |
| 20260508140021 | 0 | 0.0 | 3.0 | 0.00 | 0.00 | 0.00 | 70 | ||
| 20260508133021 | 48 | 247 | 1.0 | 4.0 | 0.00 | 0.00 | 0.00 | 75 | 1012.2 |
| 20260508130017 | 47 | 270 | 1.0 | 4.0 | 0.00 | 0.00 | 0.00 | 78 | 1012.3 |
| 20260508123021 | 44 | 247 | 1.0 | 4.0 | 0.00 | 0.00 | 0.00 | 84 | 1012.3 |
| 20260508120021 | 43 | 202 | 1.0 | 3.0 | 0.00 | 0.00 | 0.00 | 87 | 1012.4 |
| 20260508113021 | 41 | 247 | 2.0 | 4.0 | 0.00 | 0.00 | 0.00 | 89 | 1012.3 |
| 20260508110021 | 40 | 247 | 2.0 | 5.0 | 0.00 | 0.00 | 0.00 | 91 | 1011.9 |
| 20260508103025 | 0 | 247 | 2.0 | 5.0 | 0.00 | 0.00 | 0.00 | 91 | |
| 20260508100020 | 0 | 247 | 2.0 | 5.0 | 0.00 | 0.00 | 0.00 | 90 | |
| 20260508093041 | 39 | 247 | 1.0 | 4.0 | 0.00 | 0.00 | 0.00 | 89 | 1011.5 |
| 20260508090022 | 39 | 0.0 | 0.0 | 0.00 | 0.00 | 0.00 | 88 | 1011.1 | |
| 20260508083102 | 40 | 0.0 | 1.0 | 0.00 | 0.00 | 0.00 | 89 | 1011.2 | |
| 20260508080020 | 40 | 0.0 | 3.0 | 0.00 | 0.00 | 0.00 | 90 | 1011.4 | |
| 20260508073020 | 41 | 0.0 | 0.0 | 0.00 | 0.00 | 0.00 | 90 | 1011.4 | |
| 20260508070021 | 41 | 0.0 | 2.0 | 0.00 | 0.00 | 0.00 | 87 | ||
| 20260508063021 | 0 | 247 | 2.0 | 5.0 | 0.00 | 0.00 | 0.00 | 84 | |
| 20260508060020 | 0 | 247 | 1.0 | 6.0 | 0.00 | 0.00 | 0.00 | 81 | |
| 20260508053017 | 42 | 0.0 | 3.0 | 0.00 | 0.00 | 0.00 | 80 | 1010.4 | |
| 20260508050022 | 45 | 67 | 1.0 | 3.0 | 0.00 | 0.00 | 0.00 | 56 | 1010.3 |
| 20260508043017 | 45 | 67 | 1.0 | 3.0 | 0.00 | 0.00 | 0.00 | 56 | 1010.0 |
| 20260508040026 | 44 | 67 | 2.0 | 4.0 | 0.00 | 0.00 | 0.00 | 57 | 1010.0 |
| 20260508033022 | 45 | 67 | 2.0 | 3.0 | 0.00 | 0.00 | 0.00 | 58 | 1010.1 |
| 20260508030022 | 45 | 67 | 2.0 | 3.0 | 0.00 | 0.00 | 0.00 | 60 | 1010.1 |
| 20260508023022 | 0 | 0.0 | 2.0 | 0.00 | 0.00 | 0.00 | 59 | ||
| 20260508020022 | 0 | 0.0 | 0.0 | 0.00 | 0.00 | 0.00 | 54 | ||
| 20260508013022 | 0 | 0.0 | 0.0 | 0.00 | 0.00 | 0.00 | 51 | ||
| 20260508010021 | 49 | 0.0 | 0.0 | 0.00 | 0.00 | 0.00 | 50 | 1009.4 | |
| 20260508003021 | 50 | 0.0 | 1.0 | 0.00 | 0.00 | 0.00 | 49 | 1009.0 | |
| 20260508000016 | 51 | 270 | 1.0 | 4.0 | 0.00 | 0.00 | 0.00 | 46 | 1008.7 |
| 20260507233022 | 53 | 292 | 1.0 | 4.0 | 0.00 | 0.00 | 0.00 | 44 | 1008.5 |
| 20260507230021 | 54 | 292 | 1.0 | 5.0 | 0.00 | 0.00 | 0.00 | 43 | 1008.3 |
| 20260507223041 | 55 | 270 | 3.0 | 6.0 | 0.00 | 0.00 | 0.00 | 40 | 1008.2 |
| 20260507220021 | 0 | 247 | 3.0 | 7.0 | 0.00 | 0.00 | 0.00 | 40 | |
| 20260507213025 | 0 | 292 | 3.0 | 7.0 | 0.00 | 0.00 | 0.00 | 42 | |
| 20260507210021 | 58 | 270 | 2.0 | 6.0 | 0.00 | 0.00 | 0.00 | 41 | 1008.0 |
| 20260507203021 | 57 | 270 | 3.0 | 7.0 | 0.00 | 0.00 | 0.00 | 42 | 1007.8 |